Regional Weather Roundup
Issued by NWS

Home | Current Version | Previous Version | Text Only | Print | Product List | Glossary Off
Versions: 1 2 3 4 5 6 7 8 9 10 11 12 13 14 15 16 17 18 19 20 21 22 23 24 25 26 27 28 29 30 31 32 33 34 35 36 37 38 39 40 41 42 43 44 45 46 47 48 49 50

884
ASUS44 KLIX 301505
RWRLA
LOUISIANA WEATHER ROUNDUP
NATIONAL WEATHER SERVICE NEW ORLEANS LA
1000 AM CDT THU OCT 30 2014

NOTE: "FAIR" INDICATES FEW OR NO CLOUDS BELOW 12,000 FEET WITH NO
      SIGNIFICANT WEATHER AND/OR OBSTRUCTIONS TO VISIBILITY.
      SKY/WX - SKY CONDITION AND SIGNIFICANT WEATHER.
      TMP - AIR TEMPERATURE.    DP   - DEWPOINT TEMPERATURE.
      RH  - RELATIVE HUMIDITY.  PRES - PRESSURE.
      HX  - HEAT INDEX.         WCI  - WIND CHILL INDEX.

*  THESE STATIONS ARE NOT NWS OR FAA STATIONS AND ARE NOT UNDER
   NWS QUALITY CONTROL.

LAZ040-048-061>063-065-066-069-301600-
SOUTHEAST LOUISIANA

CITY           SKY/WX    TMP DP  RH WIND       PRES   REMARKS
N.O. AUDUBON   NOT AVBL
N.O. INTL ARPT SUNNY     67  47  48 NE15      30.12S
N.O. LAKEFRONT SUNNY     67  48  50 NE15      30.13R
N.O. DOWNTOWN* FAIR      66  43  42 NE7       30.12S
SLIDELL        SUNNY     65  45  48 NE6       30.13R
BATON ROUGE    SUNNY     63  45  51 NE8       30.15R
BOOTHVILLE     SUNNY     70  58  65 NE12G20   30.09R
BELLE CHASSE   SUNNY     69  44  40 NE15G21   30.11S
BOGALUSA*        N/A     63  45  51 NE7       30.16S
NEW ROADS*     FAIR      63  46  52 E7        30.16R
GONZALES*      FAIR      64  46  52 NE8       30.13S
HAMMOND*       NOT AVBL
HOUMA*         SUNNY     68  48  49 NE14      30.11R
PORT FOURCHON* SUNNY     70  57  64 NE13G18   30.13R

$$

LAZ041-044-053-054-301600-
SOUTHWEST LOUISIANA

CITY           SKY/WX    TMP DP  RH WIND       PRES   REMARKS
LAKE CHARLES   SUNNY     64  47  53 E9        30.15R
LAFAYETTE      SUNNY     63  48  58 NE7       30.15R
PATTERSON      SUNNY     66  50  55 E15G21    30.14S
SALT POINT       N/A     67  53  61 VRB6      30.11S
NEW IBERIA     SUNNY     66  47  50 NE9       30.15R
CHENAULT AIRPK SUNNY     63  48  59 NE6       30.15R

$$

LAZ027-028-301600-
CENTRAL LOUISIANA

CITY           SKY/WX    TMP DP  RH WIND       PRES   REMARKS
FORT POLK      SUNNY     62  47  57 E7        30.17R
ALEXANDRIA INT SUNNY     60  49  66 E6        30.16R
ALEXANDRIA     SUNNY     61  49  64 NE5       30.17S

$$

LAZ001-002-301600-
NORTHWEST LOUISIANA

CITY           SKY/WX    TMP DP  RH WIND       PRES   REMARKS
SHREVEPORT     SUNNY     61  50  67 SE7       30.18R
BARKSDALE AFB  SUNNY     58  48  70 S2        30.19R
DTN SHREVEPORT SUNNY     59  49  69 SE5       30.19R

$$

LAZ014-016-301600-
NORTHEAST LOUISIANA

CITY           SKY/WX    TMP DP  RH WIND       PRES   REMARKS
MONROE         SUNNY     57  50  77 CALM      30.20R
TALLULAH       SUNNY     60  48  64 NE3       30.18R

$$




USA.gov is the U.S. government's official web portal to all federal, state and local government web resources and services.